Location: Newark
(50.8086°N, 4.3114°E)
Time: 22:37:10
(UTC+00:00)

BEESAT 3 - Visible Passes

Search period start: 23 January 2020 00:00
Search period end: 02 February 2020 00:00
Orbit: 477 x 530 km, 64.9° (Epoch: 23 January)

Date Brightness Start Highest point End Pass type
(mag) Time Alt. Az. Time Alt. Az. Time Alt. Az.
24 Jan ? 18:52:45 10° SSW 18:53:51 17° S 18:53:51 17° S visible
25 Jan ? 18:33:15 10° S 18:35:42 30° SSE 18:35:42 30° SSE visible
26 Jan ? 18:13:44 10° S 18:17:21 36° ESE 18:17:26 36° ESE visible
26 Jan ? 19:51:04 10° WSW 19:52:13 17° W 19:52:13 17° W visible
27 Jan ? 17:54:14 10° S 17:57:48 34° ESE 17:59:05 27° E visible
27 Jan ? 19:31:27 10° WSW 19:33:50 29° W 19:33:50 29° W visible
28 Jan ? 17:34:43 10° S 17:38:16 32° ESE 17:40:37 18° ENE visible
28 Jan ? 19:11:50 10° WSW 19:15:23 39° NW 19:15:23 39° NW visible
29 Jan ? 17:15:13 10° S 17:18:42 30° ESE 17:22:04 11° ENE visible
29 Jan ? 18:52:13 10° WSW 18:56:00 42° NW 18:56:49 36° N visible
30 Jan ? 18:32:35 10° WSW 18:36:24 43° NW 18:38:12 26° NNE visible
30 Jan ? 20:12:26 10° NW 20:12:56 12° NW 20:12:56 12° NW visible
31 Jan ? 18:12:58 10° WSW 18:16:49 46° NW 18:19:29 18° NNE visible
31 Jan ? 19:52:46 10° WNW 19:54:14 14° NW 19:54:14 14° NW visible
01 Feb ? 17:53:21 10° WSW 17:57:13 48° NW 18:00:43 12° NNE visible
01 Feb ? 19:33:04 10° WNW 19:35:27 15° NNW 19:35:27 15° NNW visible
